Location: Gerlach
(40.6516°N, 119.3568°W)
Time: 16:51:43
(UTC-07:00)

ITAMSAT 1 - Pass Details

Date: 11 August 2024
Orbit: 782 x 795 km, 98.8° (Epoch: 14 September)

Event Time Altitude Azimuth Distance (km) Brightness Sun altitude
Exits shadow 21:22:08 17° 156° (SSE) 1,907 9.1 -14.7°
Maximum altitude 21:26:09 73° 74° (ENE) 830 7.6 -15.3°
Drops below altitude 10° 21:31:23 10° 350° (N) 2,371 10.8 -16.1°
Sets 21:33:43 0° 349° (N) 3,305 11.7 -16.4°
